SM7GXQ Weather Reports


Display with metric or nautical units.
time (UTC)temp
F
wind
direction
speed
MPH
gust
MPH
rain 1hr
in
rain 24hr
in
rain mn
in
humidity
%
barometer
mb
20260510103004 54 208 5.0 8.0 0.00 0.00 0.00 75 1013.5
20260510101503 55 188 5.0 10.0 0.00 0.00 0.00 74 1013.7
20260510100004 55 202 3.0 8.0 0.00 0.00 0.00 68 1013.8
20260510091503 55 187 2.0 6.0 0.00 0.00 0.00 65 1013.9
20260510084504 52 241 4.0 7.0 0.00 0.00 0.00 78 1014.4
20260510081504 51 271 3.0 6.0 0.00 0.00 0.00 78 1014.6
20260510074503 50 257 3.0 7.0 0.00 0.00 0.00 80 1014.8
20260510073004 50 267 3.0 5.0 0.00 0.00 0.00 81 1015.5
20260510071503 50 265 3.0 5.0 0.00 0.00 0.00 82 1015.5
20260510060003 48 273 1.0 3.0 0.00 0.00 0.00 83 1015.8
20260510053004 49 156 0.0 2.0 0.00 0.00 0.00 81 1016.2
20260510051503 48 138 1.0 2.0 0.00 0.00 0.00 82 1016.2
20260510050003 46 140 1.0 3.0 0.00 0.00 0.00 85 1016.2
20260510043003 43 140 0.0 1.0 0.00 0.00 0.00 90 1016.5
20260510041503 40 140 0.0 2.0 0.00 0.00 0.00 92 1016.5
20260510034503 36 140 0.0 2.0 0.00 0.00 0.00 92 1016.7
20260510031504 34 146 0.0 2.0 0.00 0.00 0.00 92 1017.6
20260510014504 35 146 0.0 0.0 0.00 0.00 0.00 90 1017.8
20260510011504 35 146 0.0 0.0 0.00 0.00 0.00 90 1018.4
20260510003003 36 146 0.0 0.0 0.00 0.00 0.00 90 1018.4
20260510000003 37 146 0.0 0.0 0.00 0.00 0.00 90 1019.0
20260509233004 37 146 0.0 0.0 0.00 0.00 0.00 90 1019.0
20260509231503 38 146 0.0 0.0 0.00 0.00 0.00 90 1019.0
20260509213003 40 146 0.0 0.0 0.00 0.00 0.00 89 1019.7
20260509210004 42 146 0.0 0.0 0.00 0.00 0.00 88 1019.7
20260509204504 42 146 0.0 1.0 0.00 0.00 0.00 87 1019.7
20260509203005 43 146 0.0 2.0 0.00 0.00 0.00 86 1019.7
20260509201504 43 147 0.0 1.0 0.00 0.00 0.00 85 1020.0
20260509194503 45 147 0.0 2.0 0.00 0.00 0.00 81 1020.1
20260509193005 46 147 1.0 3.0 0.00 0.00 0.00 80 1020.1
20260509184504 49 163 1.0 3.0 0.00 0.00 0.00 73 1020.1
20260509174505 53 131 1.0 7.0 0.00 0.00 0.00 62 1019.8
20260509171504 55 96 2.0 8.0 0.00 0.00 0.00 55 1019.8
20260509154505 58 64 5.0 17.0 0.00 0.00 0.00 42 1020.6
20260509153006 58 77 7.0 12.0 0.00 0.00 0.00 40 1020.9
20260509151504 60 74 4.0 12.0 0.00 0.00 0.00 41 1020.9
20260509150006 60 74 7.0 13.0 0.00 0.00 0.00 40 1021.0
20260509144505 59 93 4.0 12.0 0.00 0.00 0.00 39 1021.2
20260509140005 57 357 8.0 13.0 0.00 0.00 0.00 52 1021.9
20260509133005 55 357 12.0 17.0 0.00 0.00 0.00 56 1021.9
20260509131504 55 350 12.0 16.0 0.00 0.00 0.00 54 1022.1
20260509124505 55 349 12.0 17.0 0.00 0.00 0.00 55 1022.1
20260509121504 56 345 8.0 12.0 0.00 0.00 0.00 61 1022.2
20260509120005 59 65 8.0 14.0 0.00 0.00 0.00 38 1022.2
20260509114504 59 57 4.0 12.0 0.00 0.00 0.00 41 1022.4
20260509110005 54 0 11.0 16.0 0.00 0.00 0.00 66 1022.5